SCOUT A DEB, 2140

Orbit data source: Space-Track

SCOUT A DEB, 2140 is space debris in LEO originally from a launch on Fri, 28 Jan 1966 UTC launched from the Air Force Western Test Range (AFWTR). Debris objects in space refer to the collection of defunct objects orbiting the Earth. Examples of debris include non-operational satellites, rocket bodies, and fragments generated from explosions, collisions, or faulty payload assembly.

Loading next visibility...
Identifier
2140, 1966-005C
Orbit
LEO
Country
Flag of USUS
Related business
Manufacturer
Unknown
Mission
Spacecraft
Bus & Motor
Unknown
Mass
Unknown
Launch date (UTC)
1966-01-28 (61 years ago)
Launch vehicle
Unknown
Launch site
Air Force Western Test Range (AFWTR)
Object type
Payload
Rocket body
Debris
Shape & HBR
Unknown shape, 0.1 m
Radar Cross Section
Medium (>0.1 m² and <1 m²)

Expand to show TLE details & history
Last TLE update: 2 days ago

TLE from 2 days ago
0 SCOUT A DEB
1 02140U 66005C   26234.51058438  .00000174  00000-0  19702-3 0  9999
2 02140  89.9603  50.3126 0315686 354.4546   5.3136 13.48452055967390
Epoch: 2026-08-22T12:15Z
TLE epoch observation values (Epoch: 2026-08-22T12:15:14.490Z)
Latitude
-0.00005°
Longitude
-104.31773°
Altitude
846.568 km
Speed
7.545 km/s
True Right ascension
03h 21m 15s
True Declination
0° 00' 00"
Sunlit
Object was in daylight at epoch
Visualization orbit readout
Latitude
Unknown
Longitude
Unknown
Altitude
Unknown
Speed
Unknown
Apparent Right ascension
Unknown
Apparent Declination
Unknown
Sunlit
N/A
Visualization observer readout
Local Sidereal Time
16:08:16
Azimuth
Unknown
Elevation
Unknown
Doppler factor
Unknown
Orbital elements
Apogee altitude
1,310.292 km
Perigee altitude
839.722 km
Semi-major axis
7,453.144 km
Eccentricity
0.03157
Inclination
89.9603°
RAAN
50.3126°
Arg. of periapsis
354.4546°
True anomaly
5.66228°
Mean anomaly
5.3136°
Eccentric anomaly
5.48654°
Mean motion
3.37314 °/min
Orbital period
106.73 mins
BSTAR
0.00019702
Loading maneuver chart data...
Computing Atmospheric mass density...
Loading historical data...
Loading historical data...
Loading historical data...
Loading historical data...
Loading historical data...
Loading historical data...
Loading historical data...

Documentation

Showing up to 5 results
|